Regional Weather Roundup
Issued by NWS Jackson, KY

Home | Current Version | Previous Version | Text Only | Print | Product List | Glossary Off
Versions: 1 2 3 4 5 6 7 8 9 10 11 12 13 14 15 16 17 18 19 20 21 22 23 24 25 26 27 28 29 30 31 32 33 34 35 36 37 38 39 40 41 42 43 44 45 46 47 48 49 50

000
ASUS43 KJKL 042210
RWRJKL

EAST KENTUCKY HOURLY WEATHER ROUNDUP
NATIONAL WEATHER SERVICE JACKSON KY
600 PM EDT SAT JUL 04 2015

NOTE: "FAIR" INDICATES FEW OR NO CLOUDS BELOW 12,000 FEET WITH
NO SIGNIFICANT WEATHER AND/OR OBSTRUCTIONS TO VISIBILITY.

* THESE REPORTS ARE NOT UNDER NWS QUALITY CONTROL AND MAY NOT
  REPORT WEATHER SUCH AS PRECIPITATION AND FOG.

KYZ079-080-083-085-087-088-110-112-115-119-120-042300
...EASTERN KENTUCKY...

CITY           SKY/WX    TMP DP  RH WIND       PRES   REMARKS
JACKSON        PTSUNNY   75  68  78 CALM      30.02S
LONDON         CLOUDY    80  65  59 NE5       30.01S
SOMERSET*      PTSUNNY   77  66  69 W5        30.01S
MONTICELLO*    CLOUDY    80  71  74 CALM      30.03S
MIDDLESBORO*   CLOUDY    74  69  83 SE5       30.02S
HARLAN APT*      N/A     77  64  65 CALM      30.02S
HAZARD APT*    CLEAR     77  68  73 NE3       30.01F
BLACK MTN*       N/A     66  63  88 N3          N/A
PIKEVILLE APT* PTSUNNY   75  68  78 CALM      30.03S
BIG SANDY*     CLOUDY    76  69  79 CALM      30.02S
MOREHEAD APT*  MOCLDY    79  64  61 CALM      30.02F
$$

KYZ035-036-041-042-044-050-067-078-099-042300
...CENTRAL KENTUCKY...

CITY           SKY/WX    TMP DP  RH WIND       PRES   REMARKS
MT STERLING*   PTSUNNY   77  68  73 NE5       30.02S
FLEMING/MASON* MOSUNNY   79  64  61 NE5       30.01F
DANVILLE*      CLOUDY    77  68  73 E3        30.01S
RICHMOND*      CLOUDY    79  64  61 CALM      30.00S
LEXINGTON      PTSUNNY   80  66  62 N5        30.00S
FRANKFORT      PTSUNNY   81  65  58 E5        29.98S
$$

KYZ091>093-OHZ055-061-077-WVZ005-015-034-035-042-042300
...SOUTHERN OHIO/WEST VIRGINIA...

CITY           SKY/WX    TMP DP  RH WIND       PRES   REMARKS
COVINGTON      MOSUNNY   80  62  54 N7        29.99F
COLUMBUS       MOSUNNY   78  55  44 N7        30.00S
DAYTON         MOSUNNY   80  60  50 CALM      30.02F
WILMINGTON     SUNNY     79  54  41 N8        30.00F
HUNTINGTON     PTSUNNY   78  66  66 CALM      29.99F
CHARLESTON     PTSUNNY   79  65  62 N3        30.00S
PINEVILLE*     PTSUNNY   77  70  80 MISG      30.08S
BECKLEY        CLOUDY    73  62  68 N7        30.07S
BLUEFIELD      MOSUNNY   75  61  61 W7        30.09S
$$

VAZ002-007-008-TNZ017-027-036-066-071-042300
...SOUTHWEST VIRGINIA/EAST TENNESSEE...

CITY           SKY/WX    TMP DP  RH WIND       PRES   REMARKS
WISE*          PTSUNNY   72  63  73 NE7       30.09S
JONESVILLE*      N/A    N/A N/A N/A MISG        N/A
ABINGDON*      PTSUNNY   74  67  78 NW3       30.06S
BRISTOL        CLOUDY    74  67  78 VRB3      30.03R
KNOXVILLE      CLOUDY    77  68  73 SW14      30.02R
OAK RIDGE      CLOUDY    77  70  79 VRB5      30.03S
CROSSVILLE     PTSUNNY   75  67  76 CALM      30.05F
NASHVILLE      CLOUDY    77  73  87 SE3       29.97F
$$

...KEY TO REMARKS...
VSB - VISIBILITY IN MILES
WCI - WIND CHILL INDEX
HX  - HEAT INDEX

$$


USA.gov is the U.S. government's official web portal to all federal, state and local government web resources and services.